Location: UFOWorks Observatory
(42.1050°N, 72.2350°W)
Time: 03:21:51
(UTC-04:00)

ISS - Visible Passes

Search period start: 30 July 2016 00:00
Search period end: 09 August 2016 00:00
Orbit: 401 x 404 km, 51.6° (Epoch: 30 July)

Date Brightness Start Highest point End Pass type
(mag) Time Alt. Az. Time Alt. Az. Time Alt. Az.
30 Jul -1.8 21:12:04 10° W 21:15:08 39° NNW 21:18:14 10° NE visible
30 Jul -0.3 22:50:05 10° NW 22:52:14 16° N 22:54:23 10° NE visible
31 Jul -0.1 00:27:10 10° NW 00:27:59 14° NNW 00:27:59 14° NNW visible
31 Jul -0.5 21:56:37 10° WNW 21:59:02 19° NNW 22:01:27 10° NE visible
31 Jul -0.5 23:34:14 10° NW 23:36:22 16° N 23:36:40 16° NNE visible
01 Aug -0.9 21:03:08 10° WNW 21:05:52 24° NNW 21:08:36 10° NE visible
01 Aug -0.3 22:41:07 10° NW 22:43:08 15° N 22:45:10 10° NE visible
02 Aug 0.0 00:17:34 10° NW 00:17:57 12° NW 00:17:57 12° NW visible
02 Aug -0.4 21:47:48 10° NW 21:49:54 16° N 21:52:00 10° NE visible
02 Aug -0.6 23:24:44 10° NW 23:26:41 19° N 23:26:41 19° N visible
03 Aug -0.6 20:54:20 10° WNW 20:56:41 18° NNW 20:59:01 10° NE visible
03 Aug -0.7 22:31:49 10° NW 22:34:02 17° N 22:35:26 13° NE visible
04 Aug 0.1 00:07:56 10° NW 00:08:00 10° NW 00:08:00 10° NW visible
04 Aug -0.5 21:38:45 10° NW 21:40:47 15° N 21:42:49 10° NE visible
04 Aug -0.8 23:15:07 10° NW 23:16:46 22° NNW 23:16:46 22° NNW visible
05 Aug -0.5 20:45:29 10° NW 20:47:32 15° N 20:49:37 10° NE visible
05 Aug -1.2 22:22:16 10° NW 22:24:52 21° NNE 22:25:32 20° NE visible
06 Aug -0.8 21:29:23 10° NW 21:31:39 17° N 21:33:56 10° NE visible
06 Aug -0.9 23:05:28 10° NW 23:06:55 23° NW 23:06:55 23° NW visible
07 Aug -0.7 20:36:21 10° NW 20:38:25 16° N 20:40:29 10° NE visible
07 Aug -1.9 22:12:37 10° NW 22:15:35 31° NNE 22:15:44 31° NNE visible
08 Aug -1.3 21:19:47 10° NW 21:22:27 23° NNE 21:24:35 13° ENE visible
08 Aug -0.9 22:55:55 10° WNW 22:57:11 21° WNW 22:57:11 21° WNW visible
